Overview Statistics Trail Chart Weather Telemetry Raw packets
 

This is the latest recevied weather packets stored in our database for station/object W5MAI. If no packets are shown the sender has not sent any weather packets the latest 10 day(s).

<< 34 35 36 37 38 39 40 >>
Time Temp. Humidity Pressure Rain* Wind** Luminosity Snow
1788038011 34.44° C 46% 1017.2 hPa 0 mm - 749 W/m² -
1788037440 34.44° C 48% 1017.4 hPa 0 mm - 756 W/m² -
1788036805 35° C 46% 1017.5 hPa 0 mm - 795 W/m² -
1788034404 33.89° C 51% 1018.1 hPa 0 mm - 891 W/m² -
1788033820 33.89° C 52% 1018.1 hPa 0 mm - 886 W/m² -
1788033218 33.33° C 53% 1018.4 hPa 0 mm - 900 W/m² -
1788032648 33.33° C 54% 1018.7 hPa 0 mm - 972 W/m² -
1788032007 33.89° C 53% 1018.8 hPa 0 mm - 308 W/m² -
1788031434 33.33° C 55% 1018.9 hPa 0 mm - 951 W/m² -
1788030840 33.33° C 58% 1019 hPa 0 mm - 939 W/m² -
1788030245 32.78° C 57% 1019.2 hPa 0 mm - 963 W/m² -
1788029652 32.78° C 58% 1019.4 hPa 0 mm - 942 W/m² -
1788029007 32.78° C 60% 1019.6 hPa 0 mm - 962 W/m² -
1788028437 32.22° C 59% 1019.9 hPa 0 mm - 984 W/m² -
1788027858 32.22° C 60% 1020 hPa 0 mm - 954 W/m² -
1788026604 32.22° C 62% 1020.3 hPa 0 mm - 937 W/m² -
1788026040 31.67° C 61% 1020.3 hPa 0 mm - 900 W/m² -
1788025468 31.67° C 64% 1020.5 hPa 0 mm - 879 W/m² -
1788023631 31.11° C 66% 1020.8 hPa 0 mm - 824 W/m² -
1788023052 30.56° C 68% 1020.9 hPa 0 mm - 824 W/m² -
1788022421 30.56° C 69% 1021 hPa 0 mm - 802 W/m² -
1788021837 30° C 72% 1021 hPa 0 mm - 782 W/m² -
1788021261 29.44° C 72% 1021 hPa 0 mm - 761 W/m² -
1788020616 28.89° C 76% 1021 hPa 0 mm - 737 W/m² -
1788020046 28.89° C 77% 1020.9 hPa 0 mm - 714 W/m² -

* Rain latest hour (hover to see other rain measurements)
** Current wind speed in m/s (hover to see current wind gust speed)